Temp
18 18 19 19 20 20 20 20 20 20 20 19 19 19 19 19 19 19 19 19 20 18 17 17 17 17 18 18 18 18 18 17 17 17 18 18 18 18 17 18 18 18 18
19 18 19 19 19 19 20 20 20 19 19 19 19 19 19 19 19 20 19 19 17 16 16 17 17 18 18 18 18 18 18 18 18 17 17 17 18 18 17 17 17 17 18
18 18 19 19 19 19 19 19 19 19 19 19 19 19 19 19 19 19 18 17 17 16 16 17 18 18 18 18 18 18 18 18 18 18 18 17 17 17 17 17 17 17 17
18 18 18 19 19 19 19 19 19 19 19 19 19 19 19 19 19 19 18 18 18 18 18 18 18 18 18 18 18 18 18 18 18 18 17 17 16 17 17 16 17 17 17
19 18 19 19 19 19 19 19 19 19 19 19 19 19 18 18 18 19 19 18 18 18 18 18 18 18 18 18 18 18 18 18 18 17 17 17 16 17 17 16 16 16 17
19 18 18 19 18 18 18 18 19 19 19 19 19 18 18 18 18 18 18 18 18 18 18 18 18 18 18 18 18 18 17 17 18 17 17 17 17 17 17 16 16 16 16
18 18 18 18 18 18 18 19 19 18 18 18 18 18 18 18 18 18 18 18 18 18 17 17 17 18 18 17 17 18 18 18 17 16 17 17 17 17 16 16 16 16 16
18 18 18 18 18 18 19 18 18 18 18 19 18 18 18 18 18 18 18 18 17 17 17 17 17 17 18 18 18 18 18 18 18 17 17 16 17 17 16 15 16 16 16
17 18 18 17 18 18 18 18 18 18 18 18 18 18 18 18 18 18 18 18 18 17 18 18 18 18 18 18 18 18 18 18 18 18 17 17 17 17 16 16 16 16 17
18 17 17 17 17 18 18 17 18 18 18 18 18 18 18 18 18 18 18 18 18 18 18 18 18 18 18 18 18 18 18 18 18 18 18 17 17 17 16 16 16 16 16
17 17 17 17 17 17 17 17 18 18 18 18 18 18 18 18 18 18 18 18 18 18 18 18 18 17 17 17 17 17 17 17 18 17 17 17 17 17 17 17 16 16 16
17 17 17 17 17 17 17 17 17 17 17 17 18 18 18 17 17 17 17 18 18 18 18 18 18 17 17 17 17 17 17 17 17 17 17 17 17 17 16 15 15 16 16
17 16 17 17 17 17 17 17 17 17 17 17 17 17 17 17 17 18 18 18 18 17 17 17 17 17 17 17 16 17 17 16 16 16 17 17 17 16 16 16 15 15 15
16 16 17 17 17 17 17 17 16 16 17 17 17 17 17 17 17 18 18 18 17 17 17 17 17 17 17 16 16 16 16 15 15 15 16 16 16 16 16 16 16 14 15
17 18 18 17 17 17 16 17 16 16 15 15 16 16 16 17 17 17 17 17 17 17 17 17 16 16 16 16 16 15 15 15 15 14 14 15 15 15 15 15 15 16 15
18 19 18 17 17 16 16 16 16 16 16 17 16 16 16 15 16 16 16 16 16 16 16 16 16 15 15 15 14 14 14 13 13 14 13 14 14 14 15 14 13 12 13
18 17 17 16 16 16 16 17 18 18 17 14 14 13 15 14 15 16 16 16 16 16 15 15 15 14 14 13 13 13 13 12 12 13 13 13 13 13 13 13 13 11 10
18 17 17 16 15 16 16 15 16 16 15 13 13 14 15 15 16 16 16 16 15 14 14 14 13 12 12 12 11 12 11 11 10 11 11 11 11 11 11 11 11 11 10
17 17 16 15 15 15 16 15 15 14 14 14 15 15 15 15 15 15 15 14 13 13 13 12 11 11 10 10 11 11 11 11 10 9 9 9 9 8 8 8 9 10 10
15 15 15 15 14 15 15 14 14 15 14 15 14 14 14 14 14 14 13 13 12 12 12 11 10 9 9 8 10 10 10 10 9 9 8 8 7 6 6 6 7 7 8
14 15 15 15 15 16 15 14 15 15 14 14 14 14 14 13 13 12 12 12 11 11 11 11 11 10 10 8 9 10 10 9 8 8 7 7 6 6 5 5 6 6 6
16 16 15 15 15 16 16 16 15 15 14 13 13 13 12 11 11 11 11 11 11 10 10 10 9 9 8 6 8 9 11 11 9 8 7 6 5 5 5 4 4 4 5
14 15 15 15 15 15 16 16 15 14 13 12 11 11 11 11 11 11 11 10 9 9 8 8 6 7 8 6 5 7 9 9 7 7 7 6 5 5 4 3 3 3 3
14 14 14 14 14 14 14 14 14 13 12 11 11 11 11 10 10 10 9 9 8 8 6 5 5 5 5 6 5 5 4 5 6 6 6 5 4 4 3 2 3 3 2
14 14 14 14 14 13 13 13 13 13 12 11 11 10 10 10 9 9 9 8 7 6 6 5 4 4 4 4 4 4 4 4 4 4 5 4 4 3 3 2 2 2 2
13 13 14 14 12 13 12 12 11 11 11 10 9 8 8 9 9 9 8 7 6 5 4 4 4 4 3 3 3 3 3 3 3 3 3 3 3 3 2 2 1 2 2
Height
836 839 841 844 844 845 847 849 851 851 853 854 856 858 859 860 861 862 863 862 861 860 859 860 859 856 855 853 851 851 852 852 852 853 852 852 853 853 852 851 850 849 847
834 840 843 845 846 848 849 851 852 853 855 856 857 859 860 862 864 864 864 864 864 862 860 859 860 857 857 855 853 853 853 852 851 852 851 851 852 853 852 851 850 850 848
835 840 845 848 848 848 851 852 853 856 856 858 859 860 862 864 864 863 863 865 864 863 861 861 859 858 858 857 857 855 855 854 852 851 850 852 852 852 850 850 850 849 848
833 840 844 848 849 850 853 853 855 857 858 859 860 862 863 865 865 864 866 866 865 863 863 861 860 859 858 858 857 857 855 855 853 851 851 852 852 851 851 850 849 848 847
834 840 844 847 849 851 853 855 856 857 858 859 860 863 865 865 864 864 866 867 865 865 864 863 862 861 860 860 859 859 857 856 854 853 852 852 851 851 851 850 849 847 846
835 840 844 849 850 852 855 856 856 858 860 861 863 865 865 865 865 867 868 869 867 867 866 863 862 862 861 861 859 858 859 856 855 853 853 851 850 851 850 850 848 848 846
840 843 846 849 852 853 855 858 858 860 862 863 864 866 866 865 866 867 868 869 868 866 866 864 864 862 862 863 861 859 859 857 856 855 853 851 851 850 849 849 848 848 848
839 843 848 851 854 854 855 860 860 861 862 863 865 866 865 866 867 868 870 870 871 869 868 865 865 864 862 863 862 861 860 859 856 855 854 853 851 849 849 848 848 848 848
842 845 848 852 854 856 858 859 861 862 862 864 865 866 865 866 867 870 871 871 870 870 870 867 866 865 863 863 863 861 860 858 856 855 854 853 851 850 848 848 848 847 847
844 847 850 853 855 856 859 861 863 863 864 865 866 867 867 867 868 870 872 872 872 870 870 868 867 866 865 863 863 861 860 859 857 855 854 853 851 850 849 847 847 847 847
844 848 850 853 855 857 860 862 864 865 866 868 867 867 869 869 869 870 873 871 871 870 871 868 868 868 865 863 863 861 859 858 856 855 854 853 851 849 848 847 846 845 845
845 847 851 853 856 859 862 863 867 867 868 869 869 869 870 870 870 871 872 872 871 871 870 868 867 867 865 863 861 860 858 856 854 852 852 851 850 848 847 846 844 844 843
846 848 851 855 857 861 866 868 869 870 871 872 872 871 872 872 873 871 871 872 871 870 870 868 867 865 864 862 860 858 856 854 852 850 849 848 847 846 845 844 842 842 841
847 848 852 856 858 863 867 869 872 873 874 876 873 874 873 873 872 871 871 870 870 870 869 867 866 865 863 861 859 857 854 853 851 850 848 846 844 843 842 841 839 839 838
846 848 854 856 860 863 865 868 871 873 875 876 875 875 876 875 872 871 870 870 869 869 868 866 866 864 862 860 858 856 854 852 851 850 848 845 843 841 839 838 836 835 834
845 850 854 856 861 862 864 866 869 872 873 874 874 873 875 875 872 870 870 870 869 868 867 866 864 863 861 859 857 855 853 851 850 848 847 844 842 840 838 836 834 832 831
847 851 852 858 861 864 865 863 867 867 869 872 873 873 871 873 871 869 870 869 868 868 866 864 863 861 860 858 857 855 853 850 849 846 845 843 840 838 836 835 832 830 829
846 849 852 857 860 862 864 865 865 867 871 874 873 874 873 872 870 871 869 867 867 867 864 862 862 861 858 857 855 854 851 849 847 845 843 841 839 837 835 833 832 829 828
843 846 850 855 857 859 861 859 861 868 870 874 873 872 871 870 870 869 868 867 866 864 863 862 861 859 858 857 855 852 849 848 846 844 841 840 838 835 833 831 830 828 826
843 845 849 853 856 857 859 862 864 868 872 872 870 869 869 869 868 868 867 867 865 864 862 861 860 857 856 854 852 850 847 845 843 843 841 839 837 834 832 831 829 826 823
846 848 852 854 856 857 859 862 865 867 868 868 867 868 867 868 868 868 868 867 864 863 861 859 857 855 854 851 849 847 844 842 841 840 840 839 836 834 833 831 828 825 822
846 848 852 854 856 858 860 862 864 865 866 866 867 868 868 868 868 868 867 866 864 862 860 858 856 854 853 850 849 845 838 840 839 839 838 837 834 832 831 829 826 824 821
850 852 853 856 859 860 861 863 864 865 866 867 868 869 869 868 868 867 866 864 862 860 858 856 855 854 852 850 849 849 841 837 841 837 836 835 833 831 829 826 823 820 817
852 854 856 857 861 862 863 864 864 865 866 867 868 869 869 868 867 865 863 861 859 857 856 855 853 852 851 851 851 850 849 847 842 834 834 833 832 829 827 825 821 817 814
851 855 857 857 860 862 864 864 864 865 867 868 869 869 868 866 864 862 859 857 855 854 853 851 851 851 851 850 849 848 847 846 844 842 833 831 830 827 825 825 821 816 811
850 855 854 856 860 862 863 865 866 868 870 871 870 869 866 863 861 858 855 853 852 852 851 851 849 848 847 848 848 847 847 845 842 840 836 831 826 823 823 821 818 813 809
Wind_Speed
18 20 24 24 25 25 24 23 22 21 19 19 18 16 14 12 11 10 9 8 9 11 13 12 12 12 10 9 10 9 9 8 8 8 8 9 10 11 11 13 13 12 12
24 20 23 24 24 24 23 22 21 20 18 17 16 14 12 11 9 9 9 10 11 12 13 13 12 12 11 10 10 10 10 10 11 11 11 11 11 11 10 12 12 12 11
23 20 22 22 24 24 23 22 20 18 17 16 14 12 12 11 9 9 11 11 12 13 13 13 13 13 13 13 13 13 12 12 12 13 14 12 11 12 10 11 12 12 10
25 21 22 22 23 23 21 20 19 17 16 15 13 12 12 10 9 11 10 10 11 11 11 12 12 12 13 13 14 15 15 14 14 14 12 14 13 12 11 12 13 14 8
24 24 24 22 22 22 20 18 17 16 15 14 13 12 11 10 10 11 10 10 11 11 11 12 12 12 13 14 15 14 14 15 16 15 13 13 12 11 12 14 15 13 7
23 23 23 22 22 21 19 17 16 15 13 13 12 11 10 10 11 10 10 10 12 13 13 14 14 14 15 15 16 16 13 15 15 13 14 15 13 12 13 16 16 15 10
19 20 21 21 21 20 18 15 15 14 12 12 11 10 9 10 11 10 11 12 13 16 15 16 16 16 15 15 17 18 17 15 14 12 13 14 14 12 13 13 15 13 11
22 21 20 19 19 17 16 15 14 13 13 12 11 9 10 11 11 11 11 12 12 14 14 16 15 15 15 15 16 18 18 18 18 14 13 12 13 13 11 11 12 13 12
19 20 19 19 18 16 15 15 14 14 12 11 10 9 11 12 11 10 10 10 10 10 11 13 13 13 13 13 14 15 16 16 17 17 17 12 13 14 11 10 11 12 13
17 18 17 16 16 16 15 13 13 12 11 10 9 9 11 11 11 9 7 7 6 7 6 7 7 8 8 9 10 11 12 13 14 15 15 14 14 13 12 11 11 12 12
18 17 15 15 16 17 15 14 11 11 9 8 9 9 9 9 8 6 4 4 3 3 3 3 4 5 5 7 9 11 11 11 13 13 13 15 15 15 14 14 13 14 13
16 15 15 16 17 15 14 12 11 10 8 7 8 8 7 6 4 3 1 1 1 1 4 6 6 6 8 9 10 12 13 14 14 14 13 14 16 16 15 14 16 16 16
13 15 18 16 14 13 10 9 7 6 6 5 5 5 4 3 2 2 1 1 2 3 4 6 7 8 9 11 11 12 13 13 12 12 13 14 15 15 16 15 14 15 18
15 15 16 14 12 11 7 5 2 2 2 3 2 4 5 5 4 3 1 1 2 4 6 8 10 12 12 11 11 11 10 9 10 11 12 13 13 12 14 15 16 16 14
15 16 14 12 11 10 7 6 3 3 7 7 6 7 8 6 4 3 2 0 3 5 8 10 11 10 9 8 8 7 7 8 11 12 13 15 15 15 15 14 15 17 17
13 14 12 12 11 11 8 7 7 5 9 10 11 9 9 7 4 2 1 3 5 9 11 11 9 6 5 5 4 5 8 10 11 13 11 13 14 14 15 15 15 15 15
10 9 13 13 11 10 9 14 12 11 17 25 16 9 8 3 3 3 3 6 9 10 8 6 5 4 3 4 6 7 9 11 11 11 9 9 9 11 11 13 14 16 18
11 10 14 14 15 17 15 10 9 15 11 9 3 7 7 5 4 4 6 6 6 6 6 5 5 5 5 7 10 10 11 11 10 3 3 4 5 6 9 12 15 19 22
8 14 16 18 19 15 9 3 10 1 6 7 5 5 3 3 3 5 5 5 4 5 5 5 6 6 7 10 12 11 14 13 6 1 2 4 6 8 10 14 18 20 22
13 18 20 19 16 12 6 6 13 14 11 7 3 4 3 4 5 5 6 5 6 7 7 8 8 8 6 10 13 11 14 10 3 1 4 5 7 10 12 15 17 19 25
18 18 16 15 12 11 16 20 16 11 6 4 4 2 3 3 4 6 7 9 11 12 13 12 10 9 9 12 12 15 14 5 2 1 4 6 9 12 14 17 19 22 22
18 17 17 17 19 20 21 17 7 7 6 5 4 2 3 5 7 9 12 16 15 12 10 8 7 7 7 8 9 12 6 8 10 7 8 9 13 15 18 22 22 22 22
17 20 21 22 19 14 10 8 8 7 7 4 2 3 8 13 15 15 15 16 13 12 6 4 5 7 10 8 6 5 5 5 14 11 16 15 19 21 21 20 21 21 21
19 19 18 16 11 9 6 4 4 3 3 2 3 5 11 13 14 15 16 16 12 7 1 3 6 8 8 9 9 6 7 11 7 9 15 19 18 21 20 18 21 20 21
18 15 15 14 11 10 10 10 10 9 7 5 3 5 10 16 19 18 16 17 12 4 0 2 4 6 6 6 5 7 8 10 10 10 11 16 19 17 17 19 16 19 20
17 16 17 19 20 20 20 20 18 15 10 7 9 13 14 20 22 21 19 15 9 4 1 2 4 4 1 2 3 4 7 9 10 10 10 16 20 21 20 20 19 19 21
Wind_Direction
161 166 166 158 148 142 138 135 131 126 126 125 121 117 111 105 100 94 87 77 71 72 70 67 64 62 58 55 49 37 24 9 354 342 337 333 343 354 356 8 14 18 17
158 164 165 157 150 144 142 139 134 134 130 124 122 119 113 107 105 100 91 84 82 76 73 67 63 62 56 50 42 32 19 5 359 348 343 339 338 347 3 358 8 360 0
155 160 163 160 154 148 147 143 140 137 133 131 128 122 115 115 109 100 92 90 83 73 67 62 56 51 46 41 34 30 22 8 2 352 351 358 355 348 1 351 356 5 1
154 159 160 163 157 152 151 146 142 139 138 134 127 123 122 115 104 96 94 88 79 72 66 60 55 50 46 39 31 24 24 15 9 4 5 357 357 3 14 6 354 348 1
157 163 161 164 161 157 153 149 144 144 141 136 133 130 127 117 106 99 96 87 77 69 61 57 52 49 45 41 34 22 13 15 10 12 10 5 6 8 4 7 6 4 11
159 162 163 167 163 158 154 153 149 148 146 139 139 134 124 113 102 99 90 82 75 69 67 66 65 64 61 45 37 27 9 10 13 15 14 13 12 9 10 13 20 24 18
157 160 166 168 164 159 159 157 154 152 149 145 139 135 121 111 107 98 95 90 89 82 77 74 72 70 60 47 39 36 30 20 18 15 12 11 7 360 9 16 13 16 9
156 160 165 166 166 164 161 163 159 159 155 149 147 134 122 116 106 102 97 95 88 81 75 73 70 64 59 50 43 38 31 29 29 21 9 3 359 356 0 10 9 6 5
157 163 163 167 170 167 167 170 169 166 160 158 148 136 127 120 113 106 100 97 90 81 73 72 68 61 56 47 39 35 29 23 24 24 23 13 2 2 359 353 354 360 0
163 166 167 170 171 172 176 178 175 170 168 161 148 136 130 126 123 114 104 95 87 78 71 64 61 59 53 42 30 20 17 10 9 8 11 11 11 8 354 355 352 352 357
166 174 174 176 181 181 183 182 181 177 171 169 155 146 140 134 123 116 118 106 97 81 40 9 351 336 354 1 356 355 349 346 344 342 342 343 350 357 354 356 358 358 356
175 180 186 188 188 189 189 186 189 181 179 176 167 156 151 147 139 138 150 104 99 9 356 352 343 332 336 339 344 347 344 332 324 320 319 318 321 326 335 337 340 340 340
177 191 197 194 188 189 195 191 188 188 191 181 182 178 190 191 237 196 175 357 353 350 3 11 8 354 339 338 344 353 346 341 334 329 323 314 307 306 311 319 325 327 329
190 195 194 186 181 186 185 184 196 219 252 271 267 249 248 250 238 214 187 321 341 1 359 1 357 347 338 342 348 353 353 0 0 351 347 341 334 319 307 302 304 312 306
194 192 188 181 182 170 158 161 149 19 351 316 296 287 291 279 268 269 251 148 23 3 354 348 344 344 342 349 354 2 13 9 0 359 359 352 348 340 337 330 313 303 304
200 194 187 184 176 164 134 106 77 22 0 346 313 276 280 300 266 230 113 26 354 345 343 342 340 335 341 355 5 5 3 360 355 348 348 345 341 343 344 338 344 351 330
216 187 191 182 171 163 130 100 100 21 336 315 311 285 243 252 72 63 350 343 339 336 342 342 335 325 342 359 354 345 338 343 347 338 341 340 346 345 339 331 332 359 7
211 182 181 173 156 146 119 80 23 315 300 290 61 82 80 51 16 338 337 347 355 3 4 356 349 359 359 345 335 332 330 334 341 350 30 15 1 350 343 337 332 342 351
175 158 160 163 149 143 144 255 247 201 140 132 118 102 54 56 20 2 17 34 27 15 15 15 6 6 358 344 334 323 325 324 321 337 29 22 8 2 356 338 327 327 330
130 140 148 155 153 152 162 161 138 134 147 142 137 105 79 47 30 26 29 15 7 5 9 3 359 5 1 345 330 315 317 307 265 343 357 7 3 357 352 346 339 331 323
122 129 134 145 147 150 144 144 150 166 158 152 106 72 29 23 30 28 24 12 5 355 345 333 329 338 340 348 330 322 312 262 190 356 338 332 349 348 346 341 334 329 322
132 134 141 138 134 135 141 157 172 172 164 143 112 80 58 42 33 21 8 349 341 331 322 322 346 343 345 0 341 313 308 287 277 292 314 325 334 337 329 328 329 324 321
124 128 128 133 141 147 157 151 135 132 150 149 108 61 41 18 1 351 343 334 326 320 304 334 1 2 346 354 9 334 311 294 316 288 308 309 320 322 324 327 329 329 326
127 128 129 130 125 119 123 122 120 102 109 99 81 54 19 9 355 343 337 334 321 304 293 28 20 18 6 342 332 319 304 301 306 299 300 307 314 319 321 327 328 329 330
123 118 117 108 103 85 69 58 55 54 56 59 17 331 340 347 346 337 326 316 299 248 239 36 30 21 11 356 334 315 310 306 296 302 302 314 306 313 314 318 315 322 327
120 123 110 102 91 88 86 80 71 62 53 27 354 337 330 326 326 319 313 301 246 220 179 35 14 357 16 340 308 316 313 314 309 302 303 309 310 315 316 313 312 316 317